Location: Unspecified
(0.0000°N, 0.0000°E)
Time: 18:11:33
(UTC+00:00)

Tiangong - Visible Passes

Search period start: 24 March 2023 00:00
Search period end: 03 April 2023 00:00
Orbit: 376 x 380 km, 41.5° (Epoch: 24 March)

Date Brightness Start Highest point End Pass type
(mag) Time Alt. Az. Time Alt. Az. Time Alt. Az.
26 Mar -1.4 19:08:30 10° NNW 19:11:21 35° NE 19:11:21 35° NE visible
27 Mar 0.1 19:43:21 10° WNW 19:45:23 23° WSW 19:45:23 23° WSW visible
28 Mar -2.2 18:40:53 10° NW 18:43:59 82° SW 18:47:06 10° SE visible
29 Mar 0.9 19:17:21 10° WSW 19:18:27 11° SW 19:19:32 10° SSW visible
30 Mar 0.5 05:08:39 10° S 05:10:52 18° SE 05:13:04 10° E visible
01 Apr -1.2 04:42:29 38° SSE 04:42:53 41° SE 04:45:50 10° ENE visible
02 Apr -0.7 05:15:58 19° WNW 05:17:00 22° NW 05:19:29 10° N visible
